Location: Newark
(11.2914°S, 14.4718°E)
Time: 18:08:34
(UTC+00:00)

Courier 1B - All Passes

Search period start: 22 September 2019 00:00
Search period end: 02 October 2019 00:00
Orbit: 962 x 1209 km, 28.3° (Epoch: 21 September)

Date Brightness Start Highest point End Pass type
(mag) Time Alt. Az. Time Alt. Az. Time Alt. Az.
22 Sep - 00:51:22 10° W 00:56:26 24° NNW 01:01:29 10° NNE night (unlit)
22 Sep - 10:35:00 10° N 10:38:43 14° NNE 10:42:28 10° ENE daylight
22 Sep - 12:25:42 10° NW 12:33:12 49° NNE 12:40:40 10° ESE daylight
22 Sep - 14:19:55 10° WNW 14:27:40 60° SSW 14:35:12 10° SE daylight
22 Sep - 16:16:27 10° WSW 16:22:44 27° SSW 16:28:48 10° SE daylight
22 Sep - 18:13:26 10° SW 18:18:29 19° S 18:23:20 10° SE visible
22 Sep - 20:08:14 10° SW 20:14:05 27° SSE 20:19:39 10° ESE visible
22 Sep - 22:02:00 10° WSW 22:08:46 68° SSE 22:15:14 10° ENE night (unlit)
22 Sep - 23:56:52 10° W 00:02:42 34° NNW 00:08:28 10° NNE night (unlit)
23 Sep - 11:32:15 10° NNW 11:39:13 36° NNE 11:46:15 10° E daylight
23 Sep - 13:25:43 10° WNW 13:33:37 78° SSW 13:41:23 10° ESE daylight
23 Sep - 15:21:41 10° W 15:28:31 32° SSW 15:35:07 10° SE daylight
23 Sep - 17:18:52 10° SW 17:24:10 20° S 17:29:16 10° SE visible
23 Sep - 19:14:19 10° SW 19:19:57 24° SSE 19:25:18 10° ESE visible
23 Sep - 21:08:12 10° SW 21:14:56 51° SSE 21:21:18 10° E visible
23 Sep - 23:02:36 10° WSW 23:09:00 49° NNW 23:15:13 10° NE night (unlit)
24 Sep - 01:00:54 10° NW 01:03:01 12° NNW 01:05:07 10° N night (unlit)
24 Sep - 10:39:05 10° NNW 10:45:15 26° NNE 10:51:31 10° E daylight
24 Sep - 12:31:43 10° WNW 12:39:35 82° NNE 12:47:27 10° ESE daylight
24 Sep - 14:27:03 10° W 14:34:19 40° SSW 14:41:25 10° SE daylight
24 Sep - 16:24:08 10° SW 16:29:50 22° S 16:35:20 10° SE daylight
24 Sep - 18:20:15 10° SW 18:25:43 22° S 18:30:56 10° SE visible
24 Sep - 20:14:22 10° SW 20:21:00 40° SSE 20:27:14 10° E visible
24 Sep - 22:08:30 10° WSW 22:15:18 69° NNW 22:21:46 10° NE night (unlit)
25 Sep - 00:05:00 10° WNW 00:09:12 18° NNW 00:13:21 10° N night (unlit)
25 Sep - 09:46:19 10° N 09:51:15 18° NNE 09:56:17 10° ENE daylight
25 Sep - 11:37:56 10° NW 11:45:35 62° NNE 11:53:21 10° ESE daylight
25 Sep - 13:32:35 10° W 13:40:10 50° SSW 13:47:41 10° SE daylight
25 Sep - 15:29:21 10° WSW 15:35:30 25° SSW 15:41:29 10° SE daylight
25 Sep - 17:25:59 10° SW 17:31:24 21° S 17:36:36 10° SE visible
25 Sep - 19:20:31 10° SW 19:26:57 33° SSE 19:33:03 10° E visible
25 Sep - 21:14:30 10° WSW 21:21:32 87° SSE 21:28:09 10° ENE visible
25 Sep - 23:10:03 10° W 23:15:27 26° NNW 23:20:42 10° NNE night (unlit)
26 Sep - 08:54:28 10° N 08:57:14 12° NNE 09:00:02 10° NE daylight
26 Sep - 10:44:23 10° NW 10:51:37 45° NNE 10:59:03 10° ESE daylight
26 Sep - 12:38:18 10° WNW 12:46:04 64° SSW 12:53:51 10° SE daylight
26 Sep - 14:34:35 10° WSW 14:41:11 29° SSW 14:47:41 10° SE daylight
26 Sep - 16:31:33 10° SW 16:37:03 21° S 16:42:22 10° SE daylight
26 Sep - 18:26:36 10° SW 18:32:49 28° SSE 18:38:43 10° ESE visible
26 Sep - 20:20:34 10° SW 20:27:42 66° SSE 20:34:23 10° ENE visible
26 Sep - 22:15:29 10° W 22:21:43 37° NNW 22:27:42 10° NE night (unlit)
27 Sep - 09:51:06 10° NNW 09:57:41 33° NNE 10:04:30 10° E daylight
27 Sep - 11:44:14 10° WNW 11:51:59 82° SSW 11:59:55 10° ESE daylight
27 Sep - 13:39:55 10° W 13:46:55 34° SSW 13:53:53 10° SE daylight
27 Sep - 15:36:57 10° SW 15:42:39 21° S 15:48:14 10° SE daylight
27 Sep - 17:32:35 10° SW 17:38:35 25° S 17:44:20 10° ESE visible
27 Sep - 19:26:39 10° SW 19:33:46 50° SSE 19:40:25 10° E visible
27 Sep - 21:21:10 10° WSW 21:28:00 53° NNW 21:34:26 10° NE night (unlit)
27 Sep - 23:19:03 10° WNW 23:21:58 13° NNW 23:24:50 10° N night (unlit)
28 Sep - 08:58:07 10° NNW 09:03:45 23° NNE 09:09:36 10° E daylight
28 Sep - 10:50:23 10° NW 10:57:59 77° NNE 11:05:53 10° ESE daylight
28 Sep - 12:45:24 10° W 12:52:42 42° SSW 13:00:04 10° SE daylight
28 Sep - 14:42:16 10° WSW 14:48:16 23° S 14:54:11 10° SE daylight
28 Sep - 16:38:26 10° SW 16:44:16 23° S 16:49:54 10° ESE daylight
28 Sep - 18:32:45 10° SW 18:39:44 40° SSE 18:46:19 10° E visible
28 Sep - 20:27:00 10° WSW 20:34:13 74° NNW 20:40:59 10° NE visible
28 Sep - 22:23:23 10° WNW 22:28:09 20° NNW 22:32:47 10° NNE night (unlit)
29 Sep - 08:05:40 10° N 08:09:50 16° NNE 08:14:07 10° ENE daylight
29 Sep - 09:56:45 10° NW 10:04:02 57° NNE 10:11:40 10° ESE daylight
29 Sep - 11:51:05 10° W 11:58:32 52° SSW 12:06:12 10° SE daylight
29 Sep - 13:47:34 10° WSW 13:53:54 26° SSW 14:00:13 10° SE daylight
29 Sep - 15:44:09 10° SW 15:49:53 22° S 15:55:29 10° SE daylight
29 Sep - 17:38:50 10° SW 17:45:37 33° SSE 17:52:03 10° E visible
29 Sep - 19:32:55 10° WSW 19:40:22 83° SSE 19:47:19 10° ENE visible
29 Sep - 21:28:26 10° W 21:34:23 29° NNW 21:40:03 10° NNE night (unlit)
30 Sep - 07:15:23 10° NNE 07:15:52 10° NNE 07:16:21 10° NE daylight
30 Sep - 09:03:21 10° NW 09:10:07 41° NNE 09:17:16 10° E daylight
30 Sep - 10:56:57 10° WNW 11:04:27 67° SSW 11:12:17 10° SE daylight
30 Sep - 12:52:55 10° WSW 12:59:34 30° SSW 13:06:16 10° SE daylight
30 Sep - 14:49:43 10° SW 14:55:28 21° S 15:01:08 10° SE daylight
30 Sep - 16:44:52 10° SW 16:51:23 28° SSE 16:57:38 10° ESE daylight
30 Sep - 18:38:56 10° SW 18:46:27 63° SSE 18:53:28 10° ENE visible
30 Sep - 20:33:52 10° W 20:40:37 41° NNW 20:46:58 10° NE visible
01 Oct - 08:10:13 10° NNW 08:16:16 29° NNE 08:22:37 10° E daylight
01 Oct - 10:03:01 10° WNW 10:10:26 86° SSW 10:18:16 10° ESE daylight
01 Oct - 11:58:24 10° W 12:05:18 35° SSW 12:12:23 10° SE daylight
01 Oct - 13:55:12 10° SW 14:01:03 22° S 14:06:53 10° SE daylight
01 Oct - 15:50:50 10° SW 15:57:04 25° S 16:03:08 10° ESE daylight
01 Oct - 17:44:59 10° SW 17:52:25 49° SSE 17:59:26 10° E visible
01 Oct - 19:39:30 10° WSW 19:46:49 58° NNW 19:53:39 10° NE visible
01 Oct - 21:37:00 10° WNW 21:40:50 15° NNW 21:44:36 10° N night (unlit)
